This is the latest recevied weather packets stored in our database for station/object KC8BSD. If no packets are shown the sender has not sent any weather packets the latest 10 day(s).
| Time | Temp. | Humidity | Pressure | Rain* | Wind** | Luminosity | Snow |
|---|---|---|---|---|---|---|---|
| 1777577289 | 11.11° C | 50% | 1016 hPa | 0 mm | - | 514 W/m² | - |
| 1777576985 | 11.11° C | 50% | 1015.7 hPa | 0 mm | - | 189 W/m² | - |
| 1777576682 | 11.67° C | 50% | 1016.1 hPa | 0 mm | - | 866 W/m² | - |
| 1777576381 | 11.11° C | 52% | 1016 hPa | 0 mm | - | 415 W/m² | - |
| 1777576078 | 11.67° C | 52% | 1015.8 hPa | 0 mm | - | 223 W/m² | - |
| 1777575773 | 11.11° C | 51% | 1015.8 hPa | 0 mm | - | 759 W/m² | - |
| 1777575470 | 10.56° C | 52% | 1016 hPa | 0 mm | - | 302 W/m² | - |
| 1777575166 | 11.11° C | 53% | 1015.9 hPa | 0 mm | - | 211 W/m² | - |
| 1777574862 | 11.11° C | 52% | 1015.9 hPa | 0 mm | - | 831 W/m² | - |
| 1777574560 | 11.67° C | 48% | 1016 hPa | 0 mm | - | 203 W/m² | - |
| 1777574256 | 11.67° C | 50% | 1015.8 hPa | 0 mm | - | 561 W/m² | - |
| 1777573951 | 11.11° C | 49% | 1015.9 hPa | 0 mm | - | 350 W/m² | - |
| 1777573646 | 11.11° C | 51% | 1015.7 hPa | 0 mm | - | 235 W/m² | - |
| 1777573342 | 11.67° C | 50% | 1015.7 hPa | 0 mm | - | 308 W/m² | - |
| 1777573038 | 12.22° C | 49% | 1015.9 hPa | 0 mm | - | 630 W/m² | - |
| 1777572735 | 12.22° C | 51% | 1015.8 hPa | 0 mm | - | 849 W/m² | - |
| 1777572430 | 11.11° C | 49% | 1016 hPa | 0 mm | - | 914 W/m² | - |
| 1777572126 | 11.67° C | 49% | 1015.9 hPa | 0 mm | - | 359 W/m² | - |
| 1777571821 | 10.56° C | 53% | 1015.7 hPa | 0 mm | - | 490 W/m² | - |
| 1777571517 | 10.56° C | 52% | 1015.7 hPa | 0 mm | - | 268 W/m² | - |
| 1777571214 | 10.56° C | 52% | 1015.9 hPa | 0 mm | - | 217 W/m² | - |
| 1777570910 | 11.67° C | 49% | 1015.9 hPa | 0 mm | - | 291 W/m² | - |
| 1777570606 | 10.56° C | 54% | 1016.1 hPa | 0 mm | - | 891 W/m² | - |
| 1777570303 | 10.56° C | 54% | 1015.7 hPa | 0 mm | - | 178 W/m² | - |
| 1777569999 | 11.67° C | 54% | 1015.9 hPa | 0 mm | - | 254 W/m² | - |
* Rain latest hour (hover to see other rain measurements)
** Current wind speed in m/s (hover to see current wind gust speed)